CST,Max TemperatureF,Mean TemperatureF,Min TemperatureF,Max Dew PointF,MeanDew PointF,Min DewpointF,Max Humidity, Mean Humidity, Min Humidity, Max Sea Level PressureIn, Mean Sea Level PressureIn, Min Sea Level PressureIn, Max VisibilityMiles, Mean VisibilityMiles, Min VisibilityMiles, Max Wind SpeedMPH, Mean Wind SpeedMPH, Max Gust SpeedMPH,PrecipitationIn, CloudCover, Events, WindDirDegrees
2013-1-1,24,14,5,9,3,0,79,62,36,30.32,30.25,30.19,10,10,10,13,7,,0.00,0,,323
2013-1-2,35,24,14,27,17,7,86,72,52,30.19,30.11,30.04,10,10,5,14,9,20,0.00,4,Snow,235
2013-1-3,32,23,14,27,17,9,86,73,54,30.39,30.31,30.18,10,10,7,16,9,21,0.00,4,,279
2013-1-4,42,28,15,23,19,10,86,67,42,30.34,30.25,30.20,10,10,10,17,9,22,0.00,0,,223
2013-1-5,41,34,28,34,26,21,80,75,69,30.19,30.09,29.98,10,10,10,20,10,26,0.00,4,,227
2013-1-6,37,27,17,21,16,10,79,64,41,30.32,30.25,30.10,10,10,7,20,12,26,0.00,2,,265
2013-1-7,48,37,26,27,23,19,80,62,34,30.23,30.11,30.02,10,10,10,22,12,30,0.00,0,,187
2013-1-8,51,40,28,34,29,23,81,67,47,30.11,29.99,29.89,10,10,5,21,9,28,0.00,0,,191
2013-1-9,51,42,33,34,30,25,81,64,44,30.44,30.35,30.12,10,10,10,12,8,16,0.00,0,,242
2013-1-10,48,40,33,39,31,21,87,72,34,30.40,30.06,29.72,10,6,0,20,9,25,0.28,5,Fog-Rain,130
2013-1-11,55,48,42,46,44,39,87,79,67,29.74,29.62,29.51,10,6,0,25,12,31,0.01,4,Fog-Rain,184
2013-1-12,55,37,19,45,19,10,81,66,51,30.10,29.98,29.62,10,10,7,30,16,36,0.00,3,,296
2013-1-13,24,18,12,10,7,3,79,68,54,30.34,30.19,30.04,10,10,4,17,11,22,0.00,2,Snow,297
2013-1-14,30,19,8,12,7,1,79,61,34,30.49,30.41,30.33,10,10,7,8,4,,0.00,0,,224
2013-1-15,35,25,15,16,11,5,79,58,30,30.40,30.29,30.11,10,10,10,9,5,,0.00,0,,200
2013-1-16,48,34,19,32,23,10,81,64,52,30.20,30.01,29.92,10,10,10,21,10,26,0.00,2,,248
2013-1-17,39,30,21,28,19,12,86,66,38,30.47,30.38,30.21,10,10,10,14,8,22,0.00,2,,321
2013-1-18,59,42,26,32,29,19,75,58,31,30.37,30.09,29.93,10,10,10,31,14,39,0.00,0,,204
2013-1-19,57,42,24,34,28,10,70,56,31,30.27,29.99,29.87,10,10,10,26,13,40,0.00,0,,267
2013-1-20,23,16,10,12,8,3,85,69,49,30.40,30.36,30.28,10,9,1,22,11,28,0.00,4,Snow,323
2013-1-21,12,8,3,5,-2,-9,73,62,56,30.44,30.38,30.34,10,10,10,22,12,30,0.00,1,,297
2013-1-22,17,12,6,5,0,-2,72,59,45,30.44,30.37,30.31,10,10,10,7,2,,0.00,5,,269
2013-1-23,35,22,8,18,9,-2,79,62,48,30.51,30.27,30.19,10,10,10,24,10,31,0.00,0,,281
2013-1-24,23,14,6,7,-2,-8,67,50,30,30.59,30.45,30.23,10,10,10,15,10,20,0.00,1,,93
2013-1-25,46,32,17,25,16,7,75,58,34,30.29,30.16,30.10,10,10,10,22,10,28,0.00,2,,265
2013-1-26,41,26,10,16,8,3,73,53,23,30.37,30.27,30.16,10,10,10,13,6,,0.00,0,,86
2013-1-27,50,41,32,46,31,16,87,77,48,30.16,29.93,29.76,10,4,1,14,11,21,0.26,7,Rain-Snow,150
2013-1-28,60,48,37,55,42,34,88,84,81,29.92,29.81,29.62,10,2,0,13,8,,0.00,7,Fog-Rain,150
2013-1-29,64,48,32,57,40,30,93,86,72,29.67,29.58,29.52,10,6,2,13,12,,0.11,6,Rain-Snow,330
2013-1-30,32,26,19,30,21,14,100,86,74,29.85,29.65,29.46,10,4,0,29,20,40,0.09,8,Snow,306
2013-1-31,17,8,0,12,0,-8,86,75,67,30.38,30.11,29.86,10,9,3,26,15,32,0.00,3,Snow,292